EA1HLH-13 Weather Reports


time (UTC)temp
F
wind
direction
speed
knots
gust
knots
rain 1hr
in
rain 24hr
in
rain mn
in
humidity
%
barometer
mb
20260503050221 52 212 0.0 0.0 0.01 1.53 0.12 99 1012.1
20260503045720 52 212 0.0 0.0 0.00 1.52 0.11 99 1012.2
20260503045220 52 212 0.0 0.0 0.00 1.52 0.11 99 1012.1
20260503044720 52 212 0.0 0.0 0.00 1.52 0.11 99 1012.2
20260503044220 52 212 0.0 0.0 0.00 1.52 0.11 99 1012.1
20260503043720 52 212 0.0 0.0 0.00 1.52 0.11 99 1012.2
20260503043220 52 198 0.0 0.0 0.00 1.52 0.11 99 1012.2
20260503042720 52 198 0.0 0.0 0.00 1.52 0.11 99 1012.2
20260503042220 52 198 0.0 0.0 0.00 1.52 0.11 99 1012.2
20260503041720 52 198 0.0 0.0 0.00 1.52 0.11 99 1012.3
20260503041220 52 198 0.0 0.0 0.00 1.52 0.11 99 1012.3
20260503040720 52 198 0.0 0.0 0.00 1.52 0.11 99 1012.3
20260503040220 52 198 0.0 0.0 0.00 1.52 0.11 99 1012.3
20260503035719 52 198 0.0 0.0 0.00 1.52 0.11 99 1012.3
20260503035219 52 198 0.0 0.0 0.00 1.52 0.11 99 1012.4
20260503034719 52 198 0.0 0.0 0.00 1.52 0.11 99 1012.3
20260503034219 52 198 0.0 0.0 0.00 1.52 0.11 99 1012.4
20260503033721 52 198 0.0 0.0 0.00 1.52 0.11 99 1012.4
20260503033220 52 198 0.0 0.0 0.00 1.52 0.11 99 1012.5
20260503032720 52 198 0.0 0.0 0.00 1.52 0.11 99 1012.5
20260503032220 52 133 0.0 0.9 0.00 1.52 0.11 99 1012.5
20260503031719 52 124 0.0 0.0 0.00 1.52 0.11 99 1012.5
20260503031219 52 124 0.0 0.0 0.00 1.52 0.11 99 1012.5
20260503030719 52 106 0.0 0.0 0.00 1.52 0.11 99 1012.6
20260503030219 52 150 0.0 0.0 0.00 1.52 0.11 99 1012.6
20260503025721 52 150 0.0 0.0 0.00 1.52 0.11 99 1012.6
20260503025220 52 150 0.0 0.0 0.00 1.52 0.11 99 1012.7
20260503024720 52 150 0.0 0.0 0.00 1.52 0.11 99 1012.7
20260503024219 52 150 0.0 0.0 0.00 1.52 0.11 99 1012.6
20260503023719 53 135 0.0 0.0 0.00 1.52 0.11 99 1012.6
20260503023219 53 124 0.0 0.0 0.00 1.52 0.11 99 1012.6
20260503022719 53 207 0.0 0.0 0.00 1.52 0.11 99 1012.6
20260503022219 53 207 0.0 0.0 0.00 1.52 0.11 99 1012.6
20260503021719 53 207 0.0 0.0 0.00 1.52 0.11 99 1012.7
20260503021219 53 207 0.0 0.0 0.00 1.52 0.11 99 1012.8
20260503020721 53 207 0.0 0.0 0.00 1.52 0.11 99 1012.7
20260503020220 53 207 0.0 0.0 0.00 1.52 0.11 99 1012.8
20260503015720 53 207 0.0 0.0 0.00 1.52 0.11 99 1012.7
20260503015220 53 207 0.0 0.0 0.01 1.52 0.11 99 1012.9
20260503014720 53 207 0.0 0.0 0.02 1.52 0.11 99 1012.9
20260503014220 53 207 0.0 0.0 0.03 1.52 0.11 99 1013.0
20260503013720 53 207 0.0 0.0 0.03 1.52 0.11 99 1013.0
20260503013220 53 207 0.0 0.0 0.03 1.52 0.11 99 1013.0
20260503012720 53 207 0.0 0.0 0.03 1.52 0.11 99 1013.1
20260503012219 53 207 0.0 0.0 0.03 1.52 0.11 99 1013.1
20260503011719 53 207 0.0 0.0 0.03 1.52 0.11 99 1013.2
20260503011219 53 207 0.0 0.0 0.03 1.52 0.11 99 1013.2
20260503010719 53 207 0.0 0.0 0.03 1.52 0.11 99 1013.3
20260503010219 53 207 0.0 0.0 0.03 1.52 0.11 99 1013.3
20260503005719 53 208 0.0 0.0 0.03 1.52 0.11 99 1013.3
20260503005219 53 288 0.9 0.9 0.02 1.51 0.10 99 1013.3
20260503004719 53 255 0.9 1.7 0.02 1.50 0.09 99 1013.4
20260503004219 53 274 0.9 0.9 0.00 1.49 0.08 99 1013.5
20260503003719 54 264 0.9 1.7 0.00 1.49 0.08 99 1013.4
20260503003221 54 266 0.0 0.9 0.00 1.49 0.08 99 1013.5
20260503002721 54 271 0.0 1.7 0.00 1.49 0.08 99 1013.5
20260503002221 54 269 0.9 1.7 0.00 1.49 0.08 99 1013.5
20260503001720 54 252 0.0 0.9 0.00 1.49 0.08 99 1013.5
20260503001220 54 252 0.0 0.0 0.00 1.49 0.08 99 1013.7
20260503000720 54 252 0.0 0.0 0.00 1.49 0.08 99 1013.7
20260503000220 54 252 0.0 0.0 0.00 1.49 0.08 99 1013.7
20260502235720 54 252 0.0 0.0 0.01 1.49 0.08 99 1013.7
20260502235220 54 252 0.0 0.0 0.01 1.49 0.08 99 1013.8
20260502234720 54 252 0.0 0.0 0.01 1.49 0.08 99 1013.8
20260502234220 54 252 0.0 0.0 0.01 1.49 0.08 99 1013.8
20260502233719 54 252 0.0 0.0 0.01 1.49 0.08 99 1013.9
20260502233219 54 252 0.0 0.0 0.02 1.49 0.08 99 1013.9
20260502232719 54 252 0.0 0.0 0.04 1.49 0.08 99 1013.9
20260502232219 54 253 0.0 0.0 0.06 1.49 0.08 99 1013.8
20260502231719 54 262 0.0 0.0 0.06 1.49 0.08 99 1013.9
20260502231220 54 262 0.0 0.0 0.08 1.49 0.08 99 1013.9
20260502230720 54 262 0.0 0.0 0.08 1.49 0.08 99 1014.0
20260502230220 54 266 0.0 0.0 0.08 1.49 0.08 99 1014.0
20260502225720 54 266 0.0 0.0 0.00 1.48 0.07 99 1014.0
20260502225219 54 266 0.0 0.0 0.00 1.48 0.07 99 1014.0
20260502224719 54 266 0.0 0.0 0.00 1.48 0.07 99 1014.0
20260502224220 54 266 0.0 0.0 0.00 1.48 0.07 99 1014.0
20260502223720 54 265 0.0 0.0 0.00 1.48 0.07 99 1014.0
20260502223220 54 261 0.0 0.0 0.00 1.47 0.06 99 1014.1
20260502222720 54 261 0.0 0.0 0.00 1.45 0.04 99 1014.1
20260502222220 54 256 0.9 0.9 0.00 1.43 0.02 99 1014.0
20260502221720 54 271 1.7 1.7 0.00 1.43 0.02 99 1014.1
20260502221220 54 287 0.9 1.7 0.00 1.41 0.00 99 1014.1
20260502220720 54 271 0.0 0.9 0.00 1.41 0.00 99 1014.0
20260502220220 54 164 0.0 0.0 0.00 1.41 0.00 99 1014.0
20260502215720 54 136 0.0 0.0 0.01 1.41 1.41 99 1014.1
20260502215220 55 136 0.0 0.0 0.01 1.41 1.41 99 1014.2
20260502214720 54 136 0.0 0.0 0.00 1.40 1.40 99 1014.2
20260502214220 54 136 0.0 0.0 0.00 1.40 1.40 99 1014.2
20260502213720 54 136 0.0 0.0 0.00 1.40 1.40 99 1014.2
20260502213220 54 136 0.0 0.0 0.00 1.40 1.40 99 1014.2
20260502212720 54 136 0.0 0.0 0.00 1.40 1.40 99 1014.2
20260502212220 54 136 0.0 0.0 0.00 1.40 1.40 99 1014.2
20260502211719 54 136 0.0 0.0 0.00 1.40 1.40 99 1014.1
20260502211219 55 136 0.0 0.0 0.00 1.40 1.40 99 1014.2
20260502210719 55 135 0.0 0.9 0.00 1.40 1.40 99 1014.2
20260502210219 55 136 0.0 0.0 0.00 1.40 1.40 99 1014.1
20260502205719 55 136 0.0 0.0 0.00 1.40 1.40 99 1014.1
20260502205219 55 136 0.0 0.0 0.00 1.40 1.40 99 1014.1
20260502204719 55 136 0.0 0.0 0.00 1.40 1.40 99 1014.1
20260502204221 55 136 0.0 0.0 0.00 1.40 1.40 99 1014.1
20260502203720 55 280 0.0 0.0 0.00 1.40 1.40 99 1014.0
20260502203220 55 278 0.0 0.0 0.00 1.40 1.40 99 1014.1
20260502202720 55 278 0.0 0.0 0.00 1.40 1.40 99 1014.0
20260502202220 55 277 0.0 0.0 0.00 1.40 1.40 99 1013.9
20260502201720 55 277 0.0 0.0 0.00 1.40 1.40 99 1013.9
20260502201219 55 277 0.0 0.0 0.00 1.40 1.40 99 1013.8
20260502200719 55 277 0.0 0.0 0.00 1.40 1.40 99 1013.7
20260502200221 55 277 0.0 0.0 0.00 1.40 1.40 99 1013.6
20260502195721 55 277 0.0 0.0 0.00 1.40 1.40 99 1013.7
20260502195220 55 277 0.0 0.0 0.00 1.40 1.40 99 1013.8
20260502194720 55 277 0.0 0.0 0.00 1.40 1.40 99 1013.8
20260502194219 55 277 0.0 0.0 0.00 1.40 1.40 99 1013.7
20260502193719 55 277 0.0 0.0 0.00 1.40 1.40 99 1013.7
20260502193219 55 278 0.0 0.0 0.00 1.40 1.40 99 1013.7
20260502192719 55 278 0.0 0.0 0.00 1.40 1.40 99 1013.7
20260502192219 55 276 0.0 2.6 0.00 1.40 1.40 99 1013.6
20260502191720 55 278 0.0 0.9 0.00 1.40 1.40 99 1013.7
20260502191220 55 276 0.0 0.0 0.01 1.40 1.40 99 1013.7
20260502190720 55 260 0.0 0.9 0.05 1.40 1.40 99 1013.6
20260502190220 55 272 0.0 0.9 0.07 1.40 1.40 99 1013.6
20260502185720 55 280 1.7 2.6 0.09 1.40 1.40 99 1013.6
20260502185220 55 270 1.7 2.6 0.09 1.40 1.40 99 1013.6
20260502184720 55 267 0.9 1.7 0.09 1.40 1.40 99 1013.6
20260502184220 55 270 1.7 2.6 0.11 1.40 1.40 99 1013.5
20260502183719 55 291 1.7 2.6 0.11 1.40 1.40 99 1013.5
20260502183219 55 288 4.3 5.2 0.15 1.40 1.40 99 1013.4
20260502182719 55 287 5.2 7.0 0.17 1.40 1.40 99 1013.4
20260502182219 55 293 1.7 2.6 0.17 1.40 1.40 99 1013.4
20260502181719 55 293 6.1 7.0 0.17 1.40 1.40 99 1013.5
20260502181219 55 299 4.3 5.2 0.16 1.39 1.39 99 1013.5
20260502180719 55 297 2.6 8.7 0.12 1.35 1.35 99 1013.4
20260502180220 55 302 0.9 1.7 0.09 1.33 1.33 99 1013.4
20260502170220 55 87 0.9 1.7 0.33 1.24 1.24 99 1013.7
20260502164219 56 278 0.9 1.7 0.21 1.12 1.12 99 1013.5
20260502163719 56 294 4.3 5.2 0.18 1.09 1.09 99 1013.5
20260502163220 56 295 0.0 0.0 0.09 1.00 1.00 99 1013.4
20260502162719 56 333 0.0 0.0 0.02 0.92 0.92 99 1013.6
20260502162220 56 347 0.0 0.0 0.01 0.91 0.91 99 1013.5
20260502161719 56 348 0.0 0.0 0.06 0.91 0.91 99 1013.6
20260502161220 55 344 0.0 0.0 0.06 0.91 0.91 99 1013.5
20260502160719 56 355 1.7 2.6 0.06 0.91 0.91 99 1013.6
20260502160219 56 2 2.6 5.2 0.06 0.91 0.91 99 1013.5
20260502152219 56 2 0.0 0.9 0.06 0.90 0.90 98 1013.8
20260502151718 56 296 2.6 4.3 0.02 0.85 0.85 98 1013.8
20260502151218 56 305 4.3 5.2 0.02 0.85 0.85 98 1013.9
20260502150718 56 287 2.6 4.3 0.02 0.85 0.85 98 1014.0
20260502150218 57 341 2.6 4.3 0.06 0.85 0.85 99 1014.1
20260502130718 56 104 0.0 0.9 0.28 0.53 0.53 96 1014.7
20260502130218 56 288 0.9 2.6 0.28 0.53 0.53 95 1014.7
20260502123718 59 281 6.1 7.0 0.13 0.37 0.37 88 1014.8
20260502123218 62 285 5.2 8.7 0.00 0.24 0.24 86 1014.4
20260502122718 62 285 2.6 4.3 0.00 0.24 0.24 84 1014.3
20260502122218 63 286 1.7 4.3 0.00 0.24 0.24 84 1014.2
20260502121719 63 316 0.9 0.9 0.00 0.24 0.24 84 1014.2
20260502121219 63 254 0.9 2.6 0.00 0.24 0.24 87 1014.4
20260502120719 62 211 1.7 2.6 0.00 0.24 0.24 85 1014.4
20260502120219 62 155 1.7 2.6 0.00 0.24 0.24 86 1014.4
20260502115718 62 253 0.9 2.6 0.00 0.24 0.24 89 1014.4
20260502115218 62 115 0.0 0.9 0.00 0.24 0.24 92 1014.5
20260502114719 60 202 0.9 0.9 0.01 0.24 0.24 92 1014.6
20260502114218 60 242 0.9 0.9 0.01 0.24 0.24 92 1014.7
20260502113718 60 102 0.9 1.7 0.01 0.24 0.24 94 1014.9
20260502113219 60 137 0.0 0.9 0.01 0.24 0.24 95 1014.9
20260502112719 59 275 0.9 0.9 0.01 0.24 0.24 95 1014.8
20260502112219 59 290 0.0 0.9 0.01 0.24 0.24 95 1014.9
20260502111719 58 211 0.0 0.9 0.01 0.24 0.24 95 1015.0
20260502111219 58 253 0.9 2.6 0.01 0.24 0.24 95 1015.0
20260502110719 59 259 1.7 2.6 0.01 0.24 0.24 94 1015.0
20260502110218 59 281 2.6 2.6 0.01 0.24 0.24 93 1015.1
20260502105718 59 288 4.3 4.3 0.01 0.24 0.24 92 1015.0
20260502105220 60 283 0.9 2.6 0.01 0.24 0.24 91 1014.9
20260502104720 60 256 1.7 4.3 0.00 0.24 0.24 90 1015.0
20260502104220 60 260 0.0 0.9 0.00 0.24 0.24 91 1015.0
20260502103720 60 245 0.0 0.9 0.00 0.24 0.24 91 1015.1
20260502103220 60 243 0.0 0.9 0.00 0.24 0.24 91 1015.1
20260502102720 60 132 0.0 0.9 0.00 0.24 0.24 92 1015.1
20260502102220 60 185 0.9 1.7 0.00 0.24 0.24 92 1015.1
20260502101720 59 226 0.0 0.9 0.00 0.24 0.24 94 1015.1
20260502101219 59 193 0.0 1.7 0.00 0.24 0.24 94 1015.1
20260502100719 59 263 0.0 0.9 0.00 0.24 0.24 95 1015.2
20260502100219 59 195 0.9 1.7 0.00 0.24 0.24 96 1015.2
20260502091220 54 82 0.0 0.0 0.06 0.24 0.24 99 1015.4
20260502090720 54 86 0.0 0.0 0.06 0.24 0.24 99 1015.5
20260502090219 54 139 0.0 0.0 0.07 0.24 0.24 99 1015.6
20260502071218 50 123 0.0 0.0 0.06 0.10 0.10 99 1015.7
20260502070718 50 123 0.0 0.0 0.06 0.10 0.10 99 1015.6
20260502070218 49 124 0.0 0.0 0.05 0.09 0.09 99 1015.5
20260502065718 50 131 0.0 0.0 0.05 0.08 0.08 99 1015.5
20260502065220 49 131 0.0 0.0 0.04 0.07 0.07 99 1015.4
20260502064720 49 131 0.0 0.0 0.04 0.07 0.07 99 1015.5
20260502064219 49 131 0.0 0.0 0.06 0.06 0.06 99 1015.5
20260502063719 49 131 0.0 0.0 0.06 0.06 0.06 99 1015.6
20260502063219 49 131 0.0 0.0 0.06 0.06 0.06 99 1015.7
20260502062718 49 131 0.0 0.0 0.06 0.06 0.06 99 1015.5
20260502062218 49 131 0.0 0.0 0.06 0.06 0.06 99 1015.6
20260502061718 49 127 0.0 0.0 0.05 0.05 0.05 99 1015.5
20260502061220 49 127 0.0 0.0 0.05 0.05 0.05 99 1015.5
20260502060720 48 127 0.0 0.0 0.05 0.05 0.05 99 1015.6
20260502060220 48 125 0.0 0.9 0.04 0.04 0.04 99 1015.6
20260502055720 48 41 0.0 0.0 0.03 0.03 0.03 99 1015.6
20260502055218 48 39 0.0 0.0 0.03 0.03 0.03 99 1015.5
20260502054718 47 265 0.0 0.0 0.03 0.03 0.03 98 1015.6
20260502054218 47 265 0.0 0.0 0.01 0.01 0.01 98 1015.7
20260502053718 47 297 0.0 0.0 0.00 0.00 0.00 98 1015.5
20260502053218 47 297 0.0 0.0 0.00 0.00 0.00 98 1015.5
20260502052720 47 297 0.0 0.0 0.00 0.00 0.00 98 1015.5
20260502052220 47 297 0.0 0.0 0.00 0.00 0.00 98 1015.5
20260502051720 47 297 0.0 0.0 0.00 0.00 0.00 98 1015.5
20260502051219 47 297 0.0 0.0 0.00 0.00 0.00 98 1015.6
20260502050718 47 297 0.0 0.0 0.00 0.00 0.00 98 1015.5